This demonstration page uses our WeatherBlox Daily Observations layout. Learn more.

Hourly Observations for February 19, 2017

Temp ( °F °C ) Dew Point ( °F °C ) Humidity (%) Winds ( mph kmh ) Pressure ( in mb ) Visibility ( mi km ) Precip ( " mm )
12:54 am 00:54 Clear 37 2.8 30 -1.1 76 76 N 3 6 29.83 1010 10 16.0934 0 0
1:54 am 01:54 Clear 37 2.8 30 -1.1 76 76 NNE 3 6 29.84 1010 10 16.0934 0 0
2:54 am 02:54 Clear 38 3.3 30 -1.1 73 73 Calm 29.85 1011 10 16.0934 0 0
3:54 am 03:54 Clear 36 2.2 30 -1.1 79 79 Calm 29.86 1011 10 16.0934 0 0
4:54 am 04:54 Clear 37 2.8 30 -1.1 76 76 Calm 29.87 1012 10 16.0934 0 0
5:54 am 05:54 Clear 39 3.9 32 0 76 76 Calm 29.87 1012 10 16.0934 0 0
6:54 am 06:54 Clear 43 6.1 40 4.4 89 89 Calm 29.88 1012 7 11.26538 0 0
7:54 am 07:54 Sunny with Mist and Fog 44 6.7 42 5.6 93 93 S 5 7 29.9 1013 5 8.0467 0 0
8:54 am 08:54 Sunny 49 9.4 46 7.8 90 90 S 10 17 29.9 1012 7 11.26538 0 0
9:54 am 09:54 Sunny 56 13.3 48 8.9 75 75 S 13 20 29.88 1012 9 14.48406 0 0
10:54 am 10:54 Sunny 63 17.2 50 10 63 63 S 21 33 29.87 1012 10 16.0934 0 0
11:54 am 11:54 Sunny 66 18.9 50 10 56 56 S 23 37 29.85 1011 10 16.0934 0 0
12:54 pm 12:54 Sunny 68 20 50 10 53 53 S 20 31 29.83 1010 10 16.0934 0 0
1:54 pm 13:54 Sunny 72 22.2 49 9.4 44 44 S 23 37 29.79 1009 10 16.0934 0 0
2:54 pm 14:54 Sunny 73 22.8 49 9.4 43 43 S 22 35 29.78 1008 10 16.0934 0 0
3:54 pm 15:54 Sunny 71 21.7 50 10 47 47 S 18 30 29.78 1008 10 16.0934 0 0
4:54 pm 16:54 Sunny 69 20.6 51 10.6 53 53 S 17 28 29.77 1008 10 16.0934 0 0
5:54 pm 17:54 Sunny 64 17.8 51 10.6 63 63 S 12 19 29.79 1009 10 16.0934 0 0
6:54 pm 18:54 Clear 60 15.6 51 10.6 72 72 S 15 24 29.81 1009 10 16.0934 0 0
7:54 pm 19:54 Clear 57 13.9 51 10.6 81 81 S 15 24 29.82 1010 10 16.0934 0 0
8:54 pm 20:54 Clear 55 12.8 51 10.6 87 87 S 14 22 29.81 1010 9 14.48406 0 0
9:54 pm 21:54 Clear 55 12.8 52 11.1 90 90 S 13 20 29.82 1010 9 14.48406 0 0
10:54 pm 22:54 Clear 56 13.3 53 11.7 90 90 S 9 15 29.79 1009 9 14.48406 0 0
11:54 pm 23:54 Clear 58 14.4 53 11.7 84 84 S 15 24 29.77 1008 10 16.0934 0 0

Powered by AerisWeather